OBJECT CJ, 66746

Orbit data source: Space-Track

You're viewing an uncataloged RSO

Recently launched and/or uncataloged RSOs may have evolving metadata. Metadata may include the following, but is not limited to: Owner, Manufacturer, Bus, Motor, and Mission.

OBJECT CJ, 66746 is a satellite in SSO that was launched on Fri, 28 Nov 2025 UTC via an FALCON 9 launch vehicle from the Air Force Western Test Range (AFWTR). Unknown objects in Earth's orbit typically refer to objects detected orbiting the Earth but have not yet been identified or cataloged. These objects could be anything from previously untracked satellites, spent rocket stages, debris from satellite collisions, or even natural meteoroids temporarily captured by Earth's gravity.

Loading next visibility...
Identifier
66746, 2025-276CJ
Orbit
SSO
Country
Flag of TBDTBD
Related business
None
Manufacturer
Unknown
Mission
Operational Commercial Sigint
Bus & Motor
Unknown
Mass
Unknown
Launch date (UTC)
2025-11-28 (9 months ago)
Launch vehicle
FALCON 9
Launch site
Air Force Western Test Range (AFWTR)
Object type
Unknown
Shape & HBR
Box, 0.2 m
Radar Cross Section
0.035 m², Medium (>0.1 m² and < 1m²)

Expand to show TLE details & history
Last TLE update: 5 months ago

TLE from 5 months ago
0 OBJECT CJ
1 66746U 25276CJ  26097.19793056  .00020467  00000-0  89148-3 0  9997
2 66746  97.3654 171.5433 0012421 195.3082 164.7781 15.22167227 19668
Epoch: 2026-04-07T04:45Z
TLE epoch observation values (Epoch: 2026-04-07T04:45:01.200Z)
Latitude
0.00004°
Longitude
-95.1898°
Altitude
510.645 km
Speed
7.604 km/s
True Right ascension
11h 26m 10s
True Declination
0° 00' 00"
Sunlit
Object was in full shadow at epoch
Visualization orbit readout
Latitude
Unknown
Longitude
Unknown
Altitude
Unknown
Speed
Unknown
Apparent Right ascension
Unknown
Apparent Declination
Unknown
Sunlit
N/A
Visualization observer readout
Local Sidereal Time
09:52:35
Azimuth
Unknown
Elevation
Unknown
Doppler factor
Unknown
Orbital elements
Apogee altitude
504.805 km
Perigee altitude
487.727 km
Semi-major axis
6,874.403 km
Eccentricity
0.00124
Inclination
97.3654°
RAAN
171.5433°
Arg. of periapsis
195.3082°
True anomaly
164.81542°
Mean anomaly
164.7781°
Eccentric anomaly
164.79676°
Mean motion
3.80795 °/min
Orbital period
94.54 mins
BSTAR
0.00089148
Loading maneuver chart data...
Computing Atmospheric mass density...
Loading historical data...
Loading historical data...
Loading historical data...
Loading historical data...
Loading historical data...
Loading historical data...
Loading historical data...

Documentation

Showing up to 5 results
|